Time,TemperatureF,DewpointF,PressureIn,WindDirection,WindDirectionDegrees,WindSpeedMPH,WindSpeedGustMPH,Humidity,HourlyPrecipIn,Conditions,Clouds,dailyrainin,SoftwareType,DateUTC
2013-02-08 00:01:00,37.0,35.0,30.16,East,83,0.0,2.0,91,0.00,,,0.12,,2013-02-08 08:01:00,
2013-02-08 00:11:00,37.0,35.0,30.17,East,86,1.0,3.0,91,0.00,,,0.12,,2013-02-08 08:11:00,
2013-02-08 00:21:00,37.0,35.0,30.17,East,86,1.0,3.0,91,0.00,,,0.12,,2013-02-08 08:21:00,
2013-02-08 00:32:00,37.0,35.0,30.18,East,100,2.0,4.0,91,0.00,,,0.12,,2013-02-08 08:32:00,
2013-02-08 00:41:00,37.0,35.0,30.18,East,100,2.0,4.0,91,0.00,,,0.12,,2013-02-08 08:41:00,
2013-02-08 00:52:00,37.0,35.0,30.18,ESE,116,3.0,5.0,92,0.00,,,0.12,,2013-02-08 08:52:00,
2013-02-08 01:02:00,37.0,35.0,30.18,ESE,105,2.0,4.0,92,0.00,,,0.12,,2013-02-08 09:02:00,
2013-02-08 01:11:00,37.0,35.0,30.18,ESE,105,2.0,4.0,92,0.00,,,0.12,,2013-02-08 09:11:00,
2013-02-08 01:21:00,38.0,36.0,30.18,ESE,119,3.0,5.0,92,0.00,,,0.12,,2013-02-08 09:21:00,
2013-02-08 01:31:00,38.0,36.0,30.18,ESE,117,1.0,3.0,92,0.00,,,0.12,,2013-02-08 09:31:00,
2013-02-08 01:41:00,38.0,36.0,30.18,ESE,117,1.0,3.0,92,0.00,,,0.12,,2013-02-08 09:41:00,
2013-02-08 01:52:00,37.0,35.0,30.18,ESE,117,0.0,3.0,91,0.00,,,0.12,,2013-02-08 09:52:00,
2013-02-08 02:01:00,37.0,35.0,30.19,ESE,117,0.0,0.0,92,0.00,,,0.06,,2013-02-08 10:01:00,
2013-02-08 02:11:00,37.0,35.0,30.19,ESE,117,0.0,0.0,92,0.00,,,0.06,,2013-02-08 10:11:00,
2013-02-08 02:22:00,37.0,35.0,30.19,ESE,117,2.0,4.0,92,0.00,,,0.06,,2013-02-08 10:22:00,
2013-02-08 02:31:00,38.0,36.0,30.19,East,82,0.0,4.0,92,0.00,,,0.06,,2013-02-08 10:31:00,
2013-02-08 02:41:00,38.0,36.0,30.19,East,82,0.0,4.0,92,0.00,,,0.06,,2013-02-08 10:41:00,
2013-02-08 02:51:00,38.0,36.0,30.20,East,82,0.0,1.0,91,0.00,,,0.06,,2013-02-08 10:51:00,
2013-02-08 03:01:00,37.0,35.0,30.20,East,82,1.0,2.0,92,0.00,,,0.00,,2013-02-08 11:01:00,
2013-02-08 03:11:00,37.0,35.0,30.20,East,82,1.0,2.0,92,0.00,,,0.00,,2013-02-08 11:11:00,
2013-02-08 03:21:00,37.0,35.0,30.20,East,82,0.0,0.0,92,0.00,,,0.00,,2013-02-08 11:21:00,
2013-02-08 03:32:00,37.0,35.0,30.20,East,82,0.0,1.0,92,0.00,,,0.00,,2013-02-08 11:32:00,
2013-02-08 03:41:00,37.0,35.0,30.20,East,82,0.0,1.0,92,0.00,,,0.00,,2013-02-08 11:41:00,
2013-02-08 03:52:00,37.0,35.0,30.20,East,82,0.0,1.0,92,0.00,,,0.00,,2013-02-08 11:52:00,
2013-02-08 04:01:00,36.0,34.0,30.20,East,82,0.0,2.0,92,0.00,,,0.00,,2013-02-08 12:01:00,
2013-02-08 04:11:00,36.0,34.0,30.20,East,82,0.0,2.0,92,0.00,,,0.00,,2013-02-08 12:11:00,
2013-02-08 04:21:00,36.0,34.0,30.21,East,82,0.0,2.0,93,0.00,,,0.00,,2013-02-08 12:21:00,
2013-02-08 04:32:00,36.0,34.0,30.21,East,82,1.0,2.0,93,0.00,,,0.00,,2013-02-08 12:32:00,
2013-02-08 04:41:00,36.0,34.0,30.21,East,82,1.0,2.0,93,0.00,,,0.00,,2013-02-08 12:41:00,
2013-02-08 04:52:00,35.0,33.0,30.22,East,90,2.0,4.0,93,0.00,,,0.00,,2013-02-08 12:52:00,
2013-02-08 05:01:00,35.0,33.0,30.22,ESE,109,0.0,4.0,93,0.00,,,0.00,,2013-02-08 13:01:00,
2013-02-08 05:11:00,35.0,33.0,30.22,ESE,109,0.0,4.0,93,0.00,,,0.00,,2013-02-08 13:11:00,
2013-02-08 05:21:00,34.0,32.0,30.23,ESE,109,0.0,3.0,94,0.00,,,0.00,,2013-02-08 13:21:00,
2013-02-08 05:32:00,34.0,32.0,30.23,ESE,109,2.0,3.0,94,0.00,,,0.00,,2013-02-08 13:32:00,
2013-02-08 05:42:00,34.0,32.0,30.23,ESE,109,2.0,3.0,94,0.00,,,0.00,,2013-02-08 13:42:00,
2013-02-08 05:52:00,35.0,33.0,30.23,ESE,109,0.0,4.0,94,0.00,,,0.00,,2013-02-08 13:52:00,
2013-02-08 06:01:00,35.0,33.0,30.24,ESE,109,1.0,2.0,94,0.00,,,0.00,,2013-02-08 14:01:00,
2013-02-08 06:11:00,35.0,33.0,30.24,ESE,109,1.0,2.0,94,0.00,,,0.00,,2013-02-08 14:11:00,
2013-02-08 06:21:00,35.0,34.0,30.23,ESE,109,2.0,3.0,95,0.00,,,0.00,,2013-02-08 14:21:00,
2013-02-08 06:32:00,35.0,33.0,30.23,ESE,107,3.0,5.0,94,0.00,,,0.00,,2013-02-08 14:32:00,
2013-02-08 06:41:00,35.0,33.0,30.23,ESE,107,3.0,5.0,94,0.00,,,0.00,,2013-02-08 14:41:00,
2013-02-08 06:52:00,35.0,33.0,30.24,SE,125,2.0,5.0,94,0.00,,,0.00,,2013-02-08 14:52:00,
2013-02-08 07:01:00,35.0,33.0,30.23,SE,125,0.0,2.0,94,0.00,,,0.00,,2013-02-08 15:01:00,
2013-02-08 07:11:00,35.0,33.0,30.23,SE,125,0.0,2.0,94,0.00,,,0.00,,2013-02-08 15:11:00,
2013-02-08 07:21:00,35.0,33.0,30.23,SE,125,0.0,2.0,94,0.00,,,0.00,,2013-02-08 15:21:00,
2013-02-08 07:31:00,35.0,33.0,30.24,SE,125,0.0,1.0,94,0.00,,,0.00,,2013-02-08 15:31:00,
2013-02-08 07:41:00,35.0,33.0,30.24,SE,125,0.0,1.0,94,0.00,,,0.00,,2013-02-08 15:41:00,
2013-02-08 07:52:00,34.0,32.0,30.24,SE,125,0.0,1.0,94,0.00,,,0.00,,2013-02-08 15:52:00,
2013-02-08 08:01:00,34.0,33.0,30.25,SE,125,0.0,1.0,95,0.00,,,0.00,,2013-02-08 16:01:00,
2013-02-08 08:11:00,34.0,33.0,30.25,SE,125,0.0,1.0,95,0.00,,,0.00,,2013-02-08 16:11:00,
2013-02-08 08:21:00,35.0,34.0,30.26,SE,125,0.0,0.0,95,0.00,,,0.00,,2013-02-08 16:21:00,
2013-02-08 08:32:00,36.0,35.0,30.26,SE,125,0.0,0.0,95,0.00,,,0.00,,2013-02-08 16:32:00,
2013-02-08 08:41:00,36.0,35.0,30.26,SE,125,0.0,0.0,95,0.00,,,0.00,,2013-02-08 16:41:00,
2013-02-08 08:52:00,37.0,36.0,30.27,SE,125,0.0,0.0,95,0.00,,,0.00,,2013-02-08 16:52:00,
2013-02-08 09:02:00,37.0,36.0,30.27,SE,125,0.0,1.0,95,0.00,,,0.00,,2013-02-08 17:02:00,
2013-02-08 09:11:00,37.0,36.0,30.27,SE,125,0.0,1.0,95,0.00,,,0.00,,2013-02-08 17:11:00,
2013-02-08 09:22:00,38.0,37.0,30.27,SE,125,0.0,0.0,95,0.00,,,0.00,,2013-02-08 17:22:00,
2013-02-08 09:31:00,38.0,37.0,30.27,SE,125,0.0,2.0,95,0.00,,,0.00,,2013-02-08 17:31:00,
2013-02-08 09:42:00,38.0,37.0,30.27,SE,125,0.0,2.0,95,0.00,,,0.00,,2013-02-08 17:42:00,
2013-02-08 09:52:00,38.0,36.0,30.27,ESE,119,2.0,5.0,94,0.00,,,0.00,,2013-02-08 17:52:00,
2013-02-08 10:01:00,38.0,36.0,30.28,ESE,119,1.0,3.0,94,0.00,,,0.00,,2013-02-08 18:01:00,
2013-02-08 10:11:00,38.0,36.0,30.28,ESE,119,1.0,3.0,94,0.00,,,0.00,,2013-02-08 18:11:00,
2013-02-08 10:23:00,38.0,36.0,30.28,ESE,119,3.0,3.0,94,0.00,,,0.00,,2013-02-08 18:23:00,
2013-02-08 10:32:00,38.0,36.0,30.28,ESE,113,1.0,3.0,94,0.00,,,0.00,,2013-02-08 18:32:00,
2013-02-08 10:42:00,38.0,36.0,30.28,ESE,113,1.0,3.0,94,0.00,,,0.00,,2013-02-08 18:42:00,
2013-02-08 10:52:00,38.0,36.0,30.28,ESE,113,3.0,4.0,94,0.00,,,0.00,,2013-02-08 18:52:00,
2013-02-08 11:01:00,39.0,37.0,30.29,ESE,113,0.0,3.0,94,0.00,,,0.00,,2013-02-08 19:01:00,
2013-02-08 11:11:00,39.0,37.0,30.29,ESE,113,0.0,3.0,94,0.00,,,0.00,,2013-02-08 19:11:00,
2013-02-08 11:21:00,39.0,37.0,30.28,ESE,113,2.0,4.0,91,0.00,,,0.00,,2013-02-08 19:21:00,
2013-02-08 11:32:00,41.0,38.0,30.28,East,86,2.0,3.0,89,0.00,,,0.00,,2013-02-08 19:32:00,
2013-02-08 11:41:00,41.0,38.0,30.28,East,86,2.0,3.0,89,0.00,,,0.00,,2013-02-08 19:41:00,
2013-02-08 11:52:00,42.0,39.0,30.29,NW,307,1.0,4.0,89,0.00,,,0.00,,2013-02-08 19:52:00,
2013-02-08 12:01:00,42.0,38.0,30.28,NNW,333,0.0,2.0,85,0.00,,,0.00,,2013-02-08 20:01:00,
2013-02-08 12:11:00,42.0,38.0,30.28,NNW,333,0.0,2.0,85,0.00,,,0.00,,2013-02-08 20:11:00,
2013-02-08 12:21:00,42.0,37.0,30.27,ESE,104,2.0,3.0,83,0.00,,,0.00,,2013-02-08 20:21:00,
2013-02-08 12:31:00,42.0,37.0,30.27,ENE,69,1.0,3.0,82,0.00,,,0.00,,2013-02-08 20:31:00,
2013-02-08 12:41:00,42.0,37.0,30.27,ENE,69,1.0,3.0,82,0.00,,,0.00,,2013-02-08 20:41:00,
2013-02-08 12:52:00,43.0,38.0,30.27,ENE,69,0.0,2.0,81,0.00,,,0.00,,2013-02-08 20:52:00,
2013-02-08 13:01:00,44.0,38.0,30.27,ENE,69,0.0,2.0,79,0.00,,,0.00,,2013-02-08 21:01:00,
2013-02-08 13:11:00,44.0,38.0,30.27,ENE,69,0.0,2.0,79,0.00,,,0.00,,2013-02-08 21:11:00,
2013-02-08 13:21:00,44.0,37.0,30.27,NNE,30,1.0,5.0,76,0.00,,,0.00,,2013-02-08 21:21:00,
2013-02-08 13:32:00,44.0,37.0,30.26,NNE,24,0.0,3.0,77,0.00,,,0.00,,2013-02-08 21:32:00,
2013-02-08 13:41:00,44.0,37.0,30.26,NNE,24,0.0,3.0,77,0.00,,,0.00,,2013-02-08 21:41:00,
2013-02-08 13:52:00,44.0,38.0,30.26,NNW,343,0.0,1.0,78,0.00,,,0.00,,2013-02-08 21:52:00,
2013-02-08 14:01:00,44.0,38.0,30.26,NE,38,0.0,3.0,78,0.00,,,0.00,,2013-02-08 22:01:00,
2013-02-08 14:11:00,44.0,38.0,30.26,NE,38,0.0,3.0,78,0.00,,,0.00,,2013-02-08 22:11:00,
2013-02-08 14:21:00,44.0,37.0,30.26,NNW,344,1.0,3.0,77,0.00,,,0.00,,2013-02-08 22:21:00,
2013-02-08 14:31:00,44.0,37.0,30.26,NNE,29,0.0,2.0,77,0.00,,,0.00,,2013-02-08 22:31:00,
2013-02-08 14:41:00,44.0,37.0,30.26,NNE,29,0.0,2.0,77,0.00,,,0.00,,2013-02-08 22:41:00,
2013-02-08 14:52:00,44.0,37.0,30.26,NNE,29,0.0,2.0,77,0.00,,,0.00,,2013-02-08 22:52:00,
2013-02-08 15:01:00,44.0,37.0,30.26,ENE,78,2.0,3.0,77,0.00,,,0.00,,2013-02-08 23:01:00,
2013-02-08 15:11:00,44.0,37.0,30.26,ENE,78,2.0,3.0,77,0.00,,,0.00,,2013-02-08 23:11:00,
2013-02-08 15:21:00,44.0,37.0,30.26,East,84,0.0,3.0,75,0.00,,,0.00,,2013-02-08 23:21:00,
2013-02-08 15:31:00,44.0,37.0,30.26,East,84,0.0,2.0,76,0.00,,,0.00,,2013-02-08 23:31:00,
2013-02-08 15:41:00,44.0,37.0,30.26,East,84,0.0,2.0,76,0.00,,,0.00,,2013-02-08 23:41:00,
2013-02-08 15:52:00,44.0,37.0,30.27,East,84,0.0,2.0,75,0.00,,,0.00,,2013-02-08 23:52:00,
2013-02-08 16:01:00,44.0,37.0,30.27,East,84,0.0,3.0,77,0.00,,,0.00,,2013-02-09 00:01:00,
2013-02-08 16:11:00,44.0,37.0,30.27,East,84,0.0,3.0,77,0.00,,,0.00,,2013-02-09 00:11:00,
2013-02-08 16:21:00,44.0,37.0,30.26,East,84,0.0,1.0,76,0.00,,,0.00,,2013-02-09 00:21:00,
2013-02-08 16:31:00,44.0,37.0,30.26,East,84,0.0,1.0,76,0.00,,,0.00,,2013-02-09 00:31:00,
2013-02-08 16:41:00,44.0,37.0,30.26,East,84,0.0,1.0,76,0.00,,,0.00,,2013-02-09 00:41:00,
2013-02-08 16:52:00,44.0,37.0,30.26,East,84,0.0,2.0,77,0.00,,,0.00,,2013-02-09 00:52:00,
2013-02-08 17:01:00,44.0,37.0,30.26,East,84,0.0,1.0,77,0.00,,,0.00,,2013-02-09 01:01:00,
2013-02-08 17:11:00,44.0,37.0,30.26,East,84,0.0,1.0,77,0.00,,,0.00,,2013-02-09 01:11:00,
2013-02-08 17:21:00,43.0,36.0,30.26,ENE,59,1.0,3.0,77,0.00,,,0.00,,2013-02-09 01:21:00,
2013-02-08 17:31:00,43.0,36.0,30.25,ENE,59,0.0,4.0,77,0.00,,,0.00,,2013-02-09 01:31:00,
2013-02-08 17:41:00,43.0,36.0,30.25,ENE,59,0.0,4.0,77,0.00,,,0.00,,2013-02-09 01:41:00,
2013-02-08 17:52:00,43.0,37.0,30.26,ENE,59,0.0,2.0,78,0.00,,,0.00,,2013-02-09 01:52:00,
2013-02-08 18:01:00,42.0,36.0,30.26,ENE,60,0.0,2.0,79,0.00,,,0.00,,2013-02-09 02:01:00,
2013-02-08 18:11:00,42.0,36.0,30.26,ENE,60,0.0,2.0,79,0.00,,,0.00,,2013-02-09 02:11:00,
2013-02-08 18:21:00,42.0,36.0,30.26,ENE,60,0.0,1.0,80,0.00,,,0.00,,2013-02-09 02:21:00,
2013-02-08 18:31:00,41.0,36.0,30.26,ENE,60,0.0,1.0,81,0.00,,,0.00,,2013-02-09 02:31:00,
2013-02-08 18:41:00,41.0,36.0,30.26,ENE,60,0.0,1.0,81,0.00,,,0.00,,2013-02-09 02:41:00,
2013-02-08 18:52:00,41.0,36.0,30.26,ENE,60,0.0,1.0,82,0.00,,,0.00,,2013-02-09 02:52:00,
2013-02-08 19:01:00,41.0,36.0,30.26,ENE,60,0.0,0.0,82,0.00,,,0.00,,2013-02-09 03:01:00,
2013-02-08 19:11:00,41.0,36.0,30.26,ENE,60,0.0,0.0,82,0.00,,,0.00,,2013-02-09 03:11:00,
2013-02-08 19:21:00,41.0,36.0,30.26,ENE,60,0.0,1.0,83,0.00,,,0.00,,2013-02-09 03:21:00,
2013-02-08 19:31:00,41.0,36.0,30.25,ENE,60,0.0,1.0,83,0.00,,,0.00,,2013-02-09 03:31:00,
2013-02-08 19:41:00,41.0,36.0,30.25,ENE,60,0.0,1.0,83,0.00,,,0.00,,2013-02-09 03:41:00,
2013-02-08 19:52:00,41.0,36.0,30.26,ENE,60,0.0,0.0,83,0.00,,,0.00,,2013-02-09 03:52:00,
2013-02-08 20:01:00,41.0,36.0,30.26,ENE,60,0.0,2.0,83,0.00,,,0.00,,2013-02-09 04:01:00,
2013-02-08 20:11:00,41.0,36.0,30.26,ENE,60,0.0,0.0,83,0.00,,,0.00,,2013-02-09 04:11:00,
2013-02-08 20:22:00,41.0,36.0,30.26,ENE,60,0.0,0.0,83,0.00,,,0.00,,2013-02-09 04:22:00,
2013-02-08 20:31:00,41.0,36.0,30.26,ENE,60,0.0,0.0,83,0.00,,,0.00,,2013-02-09 04:31:00,
2013-02-08 20:42:00,41.0,36.0,30.26,ENE,60,0.0,0.0,83,0.00,,,0.00,,2013-02-09 04:42:00,
2013-02-08 20:52:00,41.0,36.0,30.26,ENE,60,0.0,0.0,83,0.00,,,0.00,,2013-02-09 04:52:00,
2013-02-08 21:02:00,41.0,36.0,30.26,ENE,60,1.0,3.0,83,0.00,,,0.00,,2013-02-09 05:02:00,
2013-02-08 21:11:00,41.0,36.0,30.26,ENE,60,1.0,3.0,83,0.00,,,0.00,,2013-02-09 05:11:00,
2013-02-08 21:22:00,41.0,37.0,30.27,ENE,60,0.0,0.0,84,0.00,,,0.00,,2013-02-09 05:22:00,
2013-02-08 21:31:00,41.0,37.0,30.26,ENE,60,0.0,0.0,84,0.00,,,0.00,,2013-02-09 05:31:00,
2013-02-08 21:41:00,41.0,37.0,30.26,ENE,60,0.0,0.0,84,0.00,,,0.00,,2013-02-09 05:41:00,
2013-02-08 21:52:00,41.0,37.0,30.26,ENE,60,0.0,2.0,84,0.00,,,0.00,,2013-02-09 05:52:00,
2013-02-08 22:01:00,41.0,37.0,30.26,ENE,60,0.0,0.0,84,0.00,,,0.00,,2013-02-09 06:01:00,
2013-02-08 22:11:00,41.0,37.0,30.26,ENE,60,0.0,0.0,84,0.00,,,0.00,,2013-02-09 06:11:00,
2013-02-08 22:21:00,41.0,37.0,30.27,ENE,60,0.0,0.0,84,0.00,,,0.00,,2013-02-09 06:21:00,
2013-02-08 22:31:00,41.0,37.0,30.26,ENE,60,0.0,1.0,84,0.00,,,0.00,,2013-02-09 06:31:00,
2013-02-08 22:41:00,41.0,37.0,30.26,ENE,60,0.0,1.0,84,0.00,,,0.00,,2013-02-09 06:41:00,
2013-02-08 22:52:00,41.0,37.0,30.26,ENE,60,0.0,1.0,85,0.00,,,0.00,,2013-02-09 06:52:00,
2013-02-08 23:01:00,41.0,37.0,30.26,ENE,60,0.0,0.0,85,0.00,,,0.00,,2013-02-09 07:01:00,
2013-02-08 23:11:00,41.0,37.0,30.26,ENE,60,0.0,0.0,85,0.00,,,0.00,,2013-02-09 07:11:00,
2013-02-08 23:21:00,41.0,37.0,30.26,ENE,60,0.0,0.0,85,0.00,,,0.00,,2013-02-09 07:21:00,
2013-02-08 23:31:00,41.0,37.0,30.26,ENE,60,0.0,0.0,85,0.00,,,0.00,,2013-02-09 07:31:00,
2013-02-08 23:42:00,41.0,37.0,30.26,ENE,60,0.0,0.0,85,0.00,,,0.00,,2013-02-09 07:42:00,
2013-02-08 23:52:00,41.0,37.0,30.25,ENE,60,0.0,1.0,85,0.00,,,0.00,,2013-02-09 07:52:00,